Weather History for Racine, WI

Change the Weather History Date:

Friday, December 7, 2012

  Actual Average Record
Temperature  
Mean Temperature 40 °F -  
Max Temperature 42 °F 35 °F 56 °F (1980)
Min Temperature 37 °F 21 °F -7 °F (1972)
Degree Days  
Heating Degree Days 26    
Moisture  
Dew Point 33 °F    
Average Humidity 79    
Maximum Humidity 89    
Minimum Humidity 70    
Precipitation  
Precipitation 0.00 in - - ()
Sea Level Pressure  
Sea Level Pressure 29.95 in    
Wind  
Wind Speed 7 mph (North)    
Max Wind Speed 15 mph    
Max Gust Speed 20 mph    
Visibility 10 miles    
Events      
Averages and records for this station are not official NWS values.
T = Trace of Precipitation, MM = Missing Value Source: NWS Daily Summary

Daily Weather History Graph

Daily Weather History Graph

Search for Another Location

Airport:

Trip Planner

Search our weather history database for the weather conditions in past years. The results will help you decide how hot, cold, wet, or windy it might be!

Date:

Astronomy

Dec. 07, 2012 Rise Set
Actual Time 7:08 AM CST 4:17 PM CST
Civil Twilight 6:36 AM CST 4:49 PM CST
Nautical Twilight 6:01 AM CST 5:24 PM CST
Astronomical Twilight 5:26 AM CST 5:58 PM CST
Moon 12:19 AM CST (12/7) 12:21 PM CST (12/7)
Length of Visible Light 10h 12m
Length of Day
9h 08m
Last Quarter, 38% of the Moon is Illuminated
Dec 7
Last Quarter
Dec 13
New
Dec 19
First Quarter
Dec 28
Full
Jan 4
Last Quarter

Hourly Weather History & Observations

Time (CST) Temp. Windchill Dew Point Humidity Pressure Visibility Wind Dir Wind Speed Gust Speed Precip Events Conditions
12:53 AM 42.1 °F 39.2 °F 37.0 °F 82% 29.94 in 9.0 mi SW 4.6 mph - 0.00 in   Overcast
1:53 AM 42.1 °F 40.2 °F 37.0 °F 82% 29.94 in 9.0 mi WSW 3.5 mph - N/A   Overcast
2:53 AM 41.0 °F 37.1 °F 36.0 °F 82% 29.94 in 9.0 mi WNW 5.8 mph - N/A   Overcast
3:53 AM 39.9 °F 35.1 °F 33.1 °F 77% 29.94 in 10.0 mi NW 6.9 mph - N/A   Overcast
4:53 AM 39.0 °F 36.8 °F 30.9 °F 73% 29.95 in 10.0 mi NNW 3.5 mph - N/A   Scattered Clouds
5:53 AM 37.9 °F - 30.0 °F 73% 29.96 in 10.0 mi Calm Calm - N/A   Overcast
6:53 AM 37.0 °F 33.3 °F 30.0 °F 76% 29.98 in 10.0 mi NNW 4.6 mph - N/A   Mostly Cloudy
7:53 AM 37.0 °F 33.3 °F 30.0 °F 76% 30.00 in 10.0 mi NW 4.6 mph - N/A   Mostly Cloudy
8:53 AM 37.9 °F 32.7 °F 30.0 °F 73% 30.00 in 10.0 mi NNW 6.9 mph - N/A   Overcast
9:53 AM 39.9 °F 34.5 °F 30.9 °F 70% 30.00 in 10.0 mi North 8.1 mph - N/A   Clear
10:53 AM 39.9 °F 35.1 °F 32.0 °F 73% 29.98 in 10.0 mi NNE 6.9 mph - N/A   Scattered Clouds
11:53 AM 41.0 °F 34.3 °F 33.1 °F 73% 29.98 in 10.0 mi NNE 11.5 mph - N/A   Mostly Cloudy
12:53 PM 41.0 °F 34.7 °F 33.1 °F 73% 29.96 in 10.0 mi NE 10.4 mph - N/A   Mostly Cloudy
1:53 PM 39.9 °F 33.4 °F 33.1 °F 77% 29.96 in 10.0 mi North 10.4 mph - N/A   Mostly Cloudy
2:53 PM 39.9 °F 33.4 °F 33.1 °F 77% 29.96 in 10.0 mi North 10.4 mph - N/A   Overcast
3:53 PM 39.0 °F 32.8 °F 34.0 °F 82% 29.96 in 10.0 mi NNE 9.2 mph - N/A   Overcast
4:53 PM 39.0 °F 33.4 °F 34.0 °F 82% 29.96 in 10.0 mi NNE 8.1 mph - N/A   Overcast
5:53 PM 39.0 °F 32.8 °F 33.1 °F 79% 29.96 in 10.0 mi NNE 9.2 mph - N/A   Overcast
6:04 PM 39.2 °F 33.0 °F 33.8 °F 81% 29.94 in 10.0 mi NNE 9.2 mph - N/A   Overcast
6:13 PM 39.2 °F 33.0 °F 33.8 °F 81% 29.94 in 10.0 mi NNE 9.2 mph - N/A   Overcast
6:39 PM 39.2 °F 32.0 °F 33.8 °F 81% 29.94 in 10.0 mi NNE 11.5 mph - N/A   Overcast
6:53 PM 39.0 °F 31.8 °F 33.1 °F 79% 29.95 in 10.0 mi NNE 11.5 mph - N/A   Overcast
7:02 PM 39.2 °F 31.6 °F 33.8 °F 81% 29.93 in 10.0 mi NNE 12.7 mph - N/A   Overcast
7:12 PM 39.2 °F 33.0 °F 33.8 °F 81% 29.93 in 10.0 mi NNE 9.2 mph - N/A   Overcast
7:53 PM 39.0 °F 32.3 °F 33.1 °F 79% 29.95 in 10.0 mi NNE 10.4 mph - N/A   Overcast
8:19 PM 39.2 °F 33.6 °F 33.8 °F 81% 29.94 in 10.0 mi North 8.1 mph - N/A   Overcast
8:29 PM 39.2 °F 30.8 °F 33.8 °F 81% 29.94 in 10.0 mi North 15.0 mph 19.6 mph N/A   Overcast
8:53 PM 39.0 °F 32.3 °F 33.1 °F 79% 29.95 in 10.0 mi NNE 10.4 mph 19.6 mph N/A   Overcast
9:53 PM 39.9 °F 32.9 °F 34.0 °F 79% 29.93 in 10.0 mi NNE 11.5 mph - N/A   Overcast
10:53 PM 39.9 °F 32.5 °F 35.1 °F 83% 29.93 in 10.0 mi North 12.7 mph - N/A   Overcast
11:00 PM 39.2 °F 32.0 °F 35.6 °F 87% 29.92 in 10.0 mi North 11.5 mph - N/A   Overcast
11:11 PM 39.2 °F 31.6 °F 35.6 °F 87% 29.92 in 10.0 mi North 12.7 mph - N/A   Overcast
11:53 PM 37.9 °F 30.5 °F 35.1 °F 89% 29.94 in 10.0 mi North 11.5 mph - N/A   Overcast